CST,Max TemperatureF,Mean TemperatureF,Min TemperatureF,Max Dew PointF,MeanDew PointF,Min DewpointF,Max Humidity, Mean Humidity, Min Humidity, Max Sea Level PressureIn, Mean Sea Level PressureIn, Min Sea Level PressureIn, Max VisibilityMiles, Mean VisibilityMiles, Min VisibilityMiles, Max Wind SpeedMPH, Mean Wind SpeedMPH, Max Gust SpeedMPH,PrecipitationIn, CloudCover, Events, WindDirDegrees
2013-2-1,44,35,26,36,29,23,100,80,61,30.53,30.42,30.26,10,10,8,18,7,29,0.00,0,,356
2013-2-2,59,42,26,50,35,25,100,90,72,30.35,30.25,30.15,10,7,0,9,4,,0.04,2,Fog-Rain,176
2013-2-3,62,45,28,50,38,28,100,85,59,30.22,30.18,30.13,10,9,4,15,5,24,0.00,0,,302
2013-2-4,55,42,30,41,36,28,100,72,54,30.14,30.05,29.97,10,10,8,13,3,,0.00,1,,173
2013-2-5,64,52,39,55,44,37,100,79,63,30.08,30.02,29.96,10,7,0,7,2,,0.00,5,Fog,212
2013-2-6,73,53,33,64,46,32,94,80,52,30.21,30.12,30.06,10,6,0,8,1,,0.00,3,Fog,136
2013-2-7,71,61,51,64,54,46,100,87,72,30.09,29.98,29.91,10,10,7,8,4,,0.00,4,Rain,125
2013-2-8,55,44,32,52,41,28,100,76,54,30.30,30.13,29.94,10,7,0,17,7,23,0.02,5,Rain,17
2013-2-9,64,46,28,48,36,23,93,73,51,30.33,30.24,30.14,10,7,1,6,2,,0.00,0,,81
2013-2-10,60,51,42,57,50,37,100,87,67,30.14,30.00,29.87,10,8,0,17,7,23,0.48,6,Rain,163
2013-2-11,60,52,44,57,42,34,94,68,54,30.21,30.13,30.02,10,8,0,8,2,,0.00,2,,345
2013-2-12,51,45,39,37,35,32,81,71,54,30.17,30.01,29.80,10,6,1,10,2,16,0.49,4,Rain,66
2013-2-13,48,45,42,39,35,32,81,70,62,30.09,29.94,29.76,10,8,1,12,5,23,0.00,8,,287
2013-2-14,62,47,32,45,34,27,93,69,51,30.13,30.09,30.06,10,7,0,9,2,,0.00,1,Fog,231
2013-2-15,62,47,32,46,32,21,80,62,51,30.19,30.14,30.09,10,8,1,14,3,17,0.00,1,,346
2013-2-16,46,35,23,32,23,14,69,59,55,30.30,30.22,30.16,10,10,8,16,6,24,0.00,1,,327
2013-2-17,53,38,23,39,30,14,100,71,54,30.35,30.27,30.20,10,10,8,9,3,16,0.00,2,,166
2013-2-18,66,52,37,52,43,32,100,73,59,30.24,30.10,29.91,10,9,2,24,11,37,0.15,2,Rain,172
2013-2-19,55,42,30,50,40,27,100,83,54,30.29,30.17,29.96,10,9,2,17,7,24,0.04,2,Rain,321
2013-2-20,44,36,28,34,31,27,100,83,66,30.34,30.26,30.17,10,10,7,15,3,22,0.00,1,Rain,23
2013-2-21,57,46,35,54,39,30,100,82,62,30.19,30.00,29.82,10,8,1,15,6,24,0.40,5,Rain,111
2013-2-22,68,57,46,54,45,39,100,72,52,30.08,30.00,29.92,10,6,0,10,2,,0.02,4,Fog-Rain,340
2013-2-23,59,48,35,43,35,28,81,66,54,30.02,29.99,29.93,10,9,6,10,6,,0.00,0,,353
2013-2-24,69,50,30,52,37,23,87,65,51,30.10,30.02,29.90,10,8,0,8,2,,0.00,0,,53
2013-2-25,64,54,44,54,44,36,82,68,58,29.91,29.73,29.44,10,9,3,21,7,30,0.05,6,Rain,114
2013-2-26,55,50,42,48,38,34,82,71,66,29.88,29.63,29.42,10,9,1,18,10,25,0.25,7,Rain,233
2013-2-27,59,47,35,57,43,32,100,88,63,30.01,29.95,29.88,10,9,5,18,6,29,0.00,2,,271
2013-2-28,48,40,32,45,39,32,100,95,87,30.12,30.06,29.98,10,9,5,14,6,18,0.00,4,,309